HST,Max TemperatureF,Mean TemperatureF,Min TemperatureF,Max Dew PointF,MeanDew PointF,Min DewpointF,Max Humidity, Mean Humidity, Min Humidity, Max Sea Level PressureIn, Mean Sea Level PressureIn, Min Sea Level PressureIn, Max VisibilityMiles, Mean VisibilityMiles, Min VisibilityMiles, Max Wind SpeedMPH, Mean Wind SpeedMPH, Max Gust SpeedMPH,PrecipitationIn, CloudCover, Events, WindDirDegrees
2013-10-1,70,60,49,56,51,45,88,72,49,30.37,30.33,30.29,12,10,7,15,7,26,0.00,3,,154
2013-10-2,71,63,54,57,54,50,87,71,53,30.31,30.28,30.25,12,12,12,15,9,22,0.00,3,,225
2013-10-3,69,58,46,56,49,34,91,68,41,30.32,30.28,30.24,12,12,12,12,6,18,0.00,2,,240
2013-10-4,68,57,46,57,52,42,94,74,56,30.33,30.29,30.26,12,12,4,14,6,24,0.00,4,,205
2013-10-5,69,58,46,55,51,38,90,75,53,30.34,30.30,30.23,12,12,12,16,6,25,0.00,4,,188
2013-10-6,69,58,46,57,48,38,94,72,43,30.33,30.30,30.26,12,12,5,15,7,24,0.00,3,,148
2013-10-7,68,57,46,55,48,31,94,71,50,30.40,30.34,30.29,12,12,11,12,6,18,0.00,3,,190
2013-10-8,68,56,45,57,51,35,100,75,35,30.39,30.34,30.30,12,12,8,16,7,24,0.00,4,,189
2013-10-9,67,56,45,54,49,38,92,77,54,30.37,30.33,30.28,12,12,7,12,5,20,0.00,4,,154
2013-10-10,70,60,49,55,49,41,100,77,46,30.35,30.31,30.27,12,8,1,14,5,23,0.52,5,Rain-Thunderstorm,220
2013-10-11,70,60,49,60,54,44,100,85,46,30.41,30.35,30.29,12,7,2,15,5,23,0.00,3,,214
2013-10-12,69,59,49,57,52,44,94,80,62,30.38,30.35,30.29,12,9,5,18,5,28,0.00,1,,203
2013-10-13,69,60,51,58,53,41,96,83,36,30.35,30.32,30.24,12,10,0,18,5,29,0.00,5,Fog,230
2013-10-14,67,58,48,55,49,42,86,73,42,30.32,30.28,30.22,12,12,6,15,6,25,0.00,4,Rain,167
2013-10-15,68,59,50,57,53,45,100,84,46,30.33,30.28,30.24,12,10,0,17,5,24,0.01,5,Fog-Rain,246
2013-10-16,68,57,46,57,49,38,90,73,44,30.33,30.28,30.25,12,10,2,14,5,24,0.12,3,Rain,177
2013-10-17,67,56,46,56,52,42,94,82,58,30.36,30.32,30.28,12,6,3,16,5,23,0.02,4,,230
2013-10-18,69,60,50,55,50,42,100,77,40,30.34,30.29,30.24,12,7,0,14,5,20,0.00,2,Fog,166
2013-10-19,70,58,47,55,49,40,100,75,35,30.29,30.25,30.21,12,8,0,12,4,21,0.01,1,Fog-Rain,295
2013-10-20,72,62,51,54,46,40,88,61,35,30.33,30.27,30.23,12,12,12,10,4,20,0.00,0,,281
2013-10-21,72,60,48,53,44,34,88,58,27,30.33,30.29,30.25,12,12,10,13,4,21,0.00,0,,285
2013-10-22,72,60,48,55,43,24,89,61,21,30.33,30.30,30.26,12,9,5,12,5,17,0.00,2,,211
2013-10-23,70,56,43,55,51,35,100,84,31,30.35,30.32,30.27,12,5,0,10,4,20,0.00,4,Fog-Rain,228
2013-10-24,67,56,45,56,50,37,94,77,42,30.34,30.30,30.24,12,8,3,10,4,18,0.00,3,,242
2013-10-25,69,58,48,57,53,44,94,80,56,30.37,30.32,30.28,12,6,3,13,4,22,0.00,4,,248
2013-10-26,68,59,50,59,54,44,100,84,57,30.42,30.37,30.32,12,5,0,14,5,26,0.00,4,Fog-Rain-Thunderstorm,279
2013-10-27,69,59,49,60,54,46,100,87,58,30.40,30.35,30.30,12,6,1,13,5,20,0.38,4,Rain-Thunderstorm,216
2013-10-28,68,58,48,61,51,42,91,78,53,30.38,30.33,30.28,12,12,11,14,6,22,0.24,2,,160
2013-10-29,68,57,45,55,45,34,94,70,30,30.39,30.34,30.29,12,12,12,16,7,30,0.00,1,,165
2013-10-30,68,55,42,55,50,26,100,82,44,30.42,30.37,30.32,12,8,0,23,7,32,0.00,4,Fog-Rain,202
2013-10-31,66,58,48,55,51,46,94,78,50,30.43,30.39,30.34,12,12,11,14,6,23,0.00,3,,194